Hourly Weather Klaj

Today, 27 July, Tuesday

Time Temperature Precipitation Wind Pressure Humidity
00:00 +20°C° 0.3 mm 2 mps 740 mmHg 86%
01:00 +20°C° 0.3 mm 2 mps 740 mmHg 89%
02:00 +20°C° 0 mm 2 mps 740 mmHg 90%
03:00 +19°C° 0 mm 2 mps 740 mmHg 91%
04:00 +19°C° 0 mm 2 mps 740 mmHg 92%
05:00 +20°C° 0 mm 2 mps 740 mmHg 89%
06:00 +21°C° 0 mm 3 mps 741 mmHg 87%
07:00 +22°C° 0 mm 3 mps 741 mmHg 84%
08:00 +25°C° 0 mm 3 mps 741 mmHg 77%
09:00 +26°C° 0 mm 3 mps 742 mmHg 70%
10:00 +27°C° 0 mm 3 mps 742 mmHg 64%
11:00 +28°C° 0.1 mm 3 mps 742 mmHg 61%
12:00 +29°C° 0.1 mm 3 mps 742 mmHg 57%
13:00 +30°C° 0.1 mm 2 mps 742 mmHg 54%
14:00 +30°C° 0.1 mm 2 mps 742 mmHg 53%
15:00 +30°C° 0.1 mm 2 mps 742 mmHg 52%
16:00 +30°C° 0.1 mm 1 mps 741 mmHg 51%
17:00 +28°C° 0.2 mm 1 mps 741 mmHg 59%
18:00 +27°C° 0.2 mm 2 mps 741 mmHg 67%
19:00 +25°C° 0.2 mm 2 mps 741 mmHg 75%
20:00 +24°C° 0 mm 1 mps 741 mmHg 78%
21:00 +23°C° 0 mm 1 mps 742 mmHg 81%
22:00 +22°C° 0 mm 1 mps 742 mmHg 84%
23:00 +22°C° 0 mm 1 mps 741 mmHg 85%

Tomorrow, 28 July, Wednesday

Time Temperature Precipitation Wind Pressure Humidity
00:00 +21°C° 0 mm 1 mps 741 mmHg 86%
01:00 +20°C° 0 mm 2 mps 741 mmHg 87%
02:00 +20°C° 0 mm 2 mps 741 mmHg 88%
03:00 +19°C° 0 mm 2 mps 741 mmHg 89%
04:00 +19°C° 0 mm 2 mps 740 mmHg 90%
05:00 +20°C° 0 mm 2 mps 740 mmHg 85%
06:00 +23°C° 0 mm 2 mps 740 mmHg 79%
07:00 +24°C° 0 mm 2 mps 740 mmHg 74%
08:00 +26°C° 0 mm 2 mps 740 mmHg 68%
09:00 +28°C° 0 mm 2 mps 740 mmHg 61%
10:00 +30°C° 0 mm 2 mps 740 mmHg 55%
11:00 +30°C° 0.2 mm 3 mps 739 mmHg 56%
12:00 +29°C° 0.2 mm 3 mps 739 mmHg 58%
13:00 +29°C° 0.2 mm 3 mps 739 mmHg 59%
14:00 +29°C° 0.1 mm 4 mps 739 mmHg 59%
15:00 +30°C° 0.1 mm 4 mps 739 mmHg 59%
16:00 +30°C° 0.1 mm 4 mps 739 mmHg 58%
17:00 +28°C° 0.5 mm 3 mps 739 mmHg 68%
18:00 +26°C° 0.5 mm 3 mps 739 mmHg 78%
19:00 +23°C° 0.5 mm 2 mps 740 mmHg 89%
20:00 +23°C° 0.4 mm 2 mps 740 mmHg 91%
21:00 +21°C° 0.4 mm 2 mps 740 mmHg 93%
22:00 +20°C° 0.4 mm 2 mps 741 mmHg 95%
23:00 +20°C° 0.1 mm 2 mps 741 mmHg 95%

Day after tomorrow, 29 July, Thursday

Time Temperature Precipitation Wind Pressure Humidity
00:00 +20°C° 0.1 mm 2 mps 741 mmHg 95%
01:00 +19°C° 0.1 mm 2 mps 741 mmHg 96%
02:00 +19°C° 0 mm 2 mps 741 mmHg 96%
03:00 +19°C° 0 mm 2 mps 741 mmHg 96%
04:00 +19°C° 0 mm 2 mps 742 mmHg 97%
05:00 +19°C° 0 mm 2 mps 742 mmHg 92%
06:00 +20°C° 0 mm 2 mps 742 mmHg 87%
07:00 +21°C° 0 mm 2 mps 742 mmHg 82%
08:00 +23°C° 0 mm 2 mps 742 mmHg 74%
09:00 +24°C° 0 mm 2 mps 742 mmHg 66%
10:00 +26°C° 0 mm 2 mps 742 mmHg 59%
11:00 +27°C° 0 mm 2 mps 742 mmHg 55%
12:00 +28°C° 0 mm 2 mps 742 mmHg 52%
13:00 +29°C° 0 mm 2 mps 742 mmHg 49%
14:00 +29°C° 0 mm 3 mps 741 mmHg 49%
15:00 +29°C° 0 mm 3 mps 741 mmHg 49%
16:00 +29°C° 0 mm 3 mps 741 mmHg 48%
17:00 +27°C° 0 mm 3 mps 741 mmHg 55%
18:00 +25°C° 0 mm 2 mps 741 mmHg 62%
19:00 +24°C° 0 mm 2 mps 741 mmHg 69%
20:00 +23°C° 0 mm 2 mps 741 mmHg 70%
21:00 +22°C° 0 mm 1 mps 741 mmHg 71%
22:00 +21°C° 0 mm 1 mps 741 mmHg 72%
23:00 +21°C° 0 mm 1 mps 740 mmHg 73%

30 July, Friday

Time Temperature Precipitation Wind Pressure Humidity
00:00 +20°C° 0 mm 1 mps 740 mmHg 74%
01:00 +20°C° 0 mm 1 mps 740 mmHg 75%
02:00 +20°C° 0 mm 1 mps 740 mmHg 75%
03:00 +20°C° 0 mm 1 mps 740 mmHg 75%
04:00 +20°C° 0 mm 1 mps 740 mmHg 75%
05:00 +21°C° 0.1 mm 1 mps 740 mmHg 72%
06:00 +22°C° 0.1 mm 1 mps 740 mmHg 69%
07:00 +24°C° 0.1 mm 1 mps 740 mmHg 66%
08:00 +26°C° 0 mm 1 mps 740 mmHg 60%
09:00 +28°C° 0 mm 1 mps 739 mmHg 54%
10:00 +29°C° 0 mm 1 mps 739 mmHg 49%
11:00 +30°C° 0 mm 1 mps 739 mmHg 47%
12:00 +31°C° 0 mm 1 mps 739 mmHg 44%
13:00 +32°C° 0 mm 1 mps 738 mmHg 42%
14:00 +31°C° 0 mm 1 mps 738 mmHg 45%
15:00 +31°C° 0 mm 2 mps 737 mmHg 47%
16:00 +31°C° 0 mm 2 mps 737 mmHg 49%
17:00 +29°C° 0.1 mm 2 mps 737 mmHg 59%
18:00 +27°C° 0.1 mm 2 mps 737 mmHg 68%
19:00 +25°C° 0.1 mm 2 mps 737 mmHg 77%
20:00 +23°C° 0.1 mm 2 mps 737 mmHg 80%
21:00 +22°C° 0.1 mm 1 mps 737 mmHg 84%
22:00 +21°C° 0.1 mm 1 mps 737 mmHg 87%
23:00 +21°C° 0 mm 1 mps 737 mmHg 88%

31 July, Saturday

Time Temperature Precipitation Wind Pressure Humidity
00:00 +21°C° 0 mm 1 mps 737 mmHg 88%
01:00 +19°C° 0 mm 0 mps 737 mmHg 89%
02:00 +21°C° 0.7 mm 1 mps 737 mmHg 90%
03:00 +20°C° 0.7 mm 1 mps 737 mmHg 91%
04:00 +20°C° 0.7 mm 1 mps 737 mmHg 93%
05:00 +21°C° 0.5 mm 1 mps 737 mmHg 92%
06:00 +21°C° 0.5 mm 1 mps 737 mmHg 91%
07:00 +21°C° 0.5 mm 2 mps 737 mmHg 91%
08:00 +23°C° 0.3 mm 2 mps 737 mmHg 86%
09:00 +24°C° 0.3 mm 2 mps 737 mmHg 82%
10:00 +25°C° 0.3 mm 2 mps 737 mmHg 77%
11:00 +26°C° 0.5 mm 3 mps 737 mmHg 73%
12:00 +27°C° 0.5 mm 3 mps 737 mmHg 69%
13:00 +27°C° 0.5 mm 4 mps 737 mmHg 65%
14:00 +27°C° 0.6 mm 4 mps 737 mmHg 66%
15:00 +27°C° 0.6 mm 4 mps 737 mmHg 67%
16:00 +27°C° 0.6 mm 4 mps 737 mmHg 69%
17:00 +25°C° 0.2 mm 4 mps 738 mmHg 73%
18:00 +24°C° 0.2 mm 3 mps 738 mmHg 77%
19:00 +21°C° 0.2 mm 3 mps 738 mmHg 82%
20:00 +21°C° 0 mm 3 mps 738 mmHg 83%
21:00 +20°C° 0 mm 3 mps 739 mmHg 84%
22:00 +19°C° 0 mm 3 mps 739 mmHg 84%
23:00 +19°C° 0 mm 3 mps 739 mmHg 85%

1 August, Sunday

Time Temperature Precipitation Wind Pressure Humidity
00:00 +18°C° 0 mm 2 mps 739 mmHg 85%
01:00 +18°C° 0 mm 2 mps 739 mmHg 86%
02:00 +18°C° 0 mm 2 mps 739 mmHg 87%
03:00 +17°C° 0 mm 2 mps 739 mmHg 88%
04:00 +17°C° 0 mm 2 mps 739 mmHg 88%
05:00 +19°C° 0 mm 1 mps 739 mmHg 84%
06:00 +20°C° 0 mm 1 mps 739 mmHg 79%
07:00 +21°C° 0 mm 1 mps 739 mmHg 74%
08:00 +22°C° 0 mm 1 mps 739 mmHg 68%
09:00 +23°C° 0 mm 2 mps 739 mmHg 62%
10:00 +25°C° 0 mm 2 mps 739 mmHg 56%
11:00 +24°C° 0.1 mm 2 mps 739 mmHg 58%
12:00 +24°C° 0.1 mm 2 mps 739 mmHg 59%
13:00 +24°C° 0.1 mm 2 mps 739 mmHg 61%
14:00 +24°C° 0 mm 2 mps 739 mmHg 61%
15:00 +24°C° 0 mm 1 mps 738 mmHg 61%
16:00 +24°C° 0 mm 1 mps 738 mmHg 61%
17:00 +23°C° 0.1 mm 1 mps 738 mmHg 66%
18:00 +22°C° 0.1 mm 1 mps 738 mmHg 71%
19:00 +21°C° 0.1 mm 1 mps 738 mmHg 76%
20:00 +19°C° 0.3 mm 2 mps 738 mmHg 78%
21:00 +18°C° 0.3 mm 4 mps 738 mmHg 80%
22:00 +16°C° 0.3 mm 5 mps 738 mmHg 83%
23:00 +17°C° 0.4 mm 4 mps 738 mmHg 85%
Show more